Time,TemperatureF,DewpointF,PressureIn,WindDirection,WindDirectionDegrees,WindSpeedMPH,WindSpeedGustMPH,Humidity,HourlyPrecipIn,Conditions,Clouds,dailyrainin,SoftwareType,DateUTC
2013-12-28 00:09:00,57.0,51.2,30.12,ESE,112,0.0,-999.0,81,-99.99,,,0.00,Acu-Link.com,2013-12-28 05:09:00,
2013-12-28 00:25:00,57.0,51.2,30.11,East,90,1.6,-999.0,81,-99.99,,,0.00,Acu-Link.com,2013-12-28 05:25:00,
2013-12-28 00:40:00,57.4,51.6,30.11,WNW,292,0.0,-999.0,81,-99.99,,,0.00,Acu-Link.com,2013-12-28 05:40:00,
2013-12-28 00:55:00,57.4,51.6,30.12,SSE,157,0.0,-999.0,81,-99.99,,,0.00,Acu-Link.com,2013-12-28 05:55:00,
2013-12-28 01:10:00,57.6,51.8,30.12,ENE,67,0.0,-999.0,81,-99.99,,,0.00,Acu-Link.com,2013-12-28 06:10:00,
2013-12-28 01:26:00,57.6,51.8,30.09,East,90,0.0,-999.0,81,-99.99,,,0.00,Acu-Link.com,2013-12-28 06:26:00,
2013-12-28 01:41:00,57.6,52.1,30.09,ESE,112,0.0,-999.0,82,-99.99,,,0.00,Acu-Link.com,2013-12-28 06:41:00,
2013-12-28 01:56:00,57.6,52.4,30.09,ESE,112,2.2,-999.0,83,-99.99,,,0.00,Acu-Link.com,2013-12-28 06:56:00,
2013-12-28 02:12:00,57.7,52.6,30.08,East,90,0.0,-999.0,83,-99.99,,,0.00,Acu-Link.com,2013-12-28 07:12:00,
2013-12-28 02:27:00,57.7,52.6,30.10,WNW,292,0.0,-999.0,83,-99.99,,,0.00,Acu-Link.com,2013-12-28 07:27:00,
2013-12-28 02:42:00,57.7,52.6,30.09,West,270,2.2,-999.0,83,-99.99,,,0.00,Acu-Link.com,2013-12-28 07:42:00,
2013-12-28 02:57:00,57.7,52.6,30.10,NNW,337,0.0,-999.0,83,-99.99,,,0.00,Acu-Link.com,2013-12-28 07:57:00,
2013-12-28 03:13:00,57.9,52.8,30.07,NNE,22,1.6,-999.0,83,-99.99,,,0.00,Acu-Link.com,2013-12-28 08:13:00,
2013-12-28 03:28:00,57.9,52.8,30.07,NE,45,0.0,-999.0,83,-99.99,,,0.00,Acu-Link.com,2013-12-28 08:28:00,
2013-12-28 03:43:00,58.1,53.0,30.07,South,180,1.6,-999.0,83,-99.99,,,0.00,Acu-Link.com,2013-12-28 08:43:00,
2013-12-28 03:59:00,58.1,53.0,30.07,NNE,22,0.0,-999.0,83,-99.99,,,0.00,Acu-Link.com,2013-12-28 08:59:00,
2013-12-28 04:14:00,58.1,53.0,30.06,East,90,0.0,-999.0,83,-99.99,,,0.00,Acu-Link.com,2013-12-28 09:14:00,
2013-12-28 04:29:00,58.1,53.3,30.07,East,90,0.0,-999.0,84,-99.99,,,0.00,Acu-Link.com,2013-12-28 09:29:00,
2013-12-28 04:45:00,58.1,53.3,30.07,East,90,0.0,-999.0,84,-99.99,,,0.00,Acu-Link.com,2013-12-28 09:45:00,
2013-12-28 05:00:00,58.1,53.3,30.06,NW,315,0.0,-999.0,84,-99.99,,,0.00,Acu-Link.com,2013-12-28 10:00:00,
2013-12-28 05:15:00,58.3,53.5,30.05,East,90,0.0,-999.0,84,-99.99,,,0.00,Acu-Link.com,2013-12-28 10:15:00,
2013-12-28 05:30:00,58.5,54.0,30.05,SSW,202,1.1,-999.0,85,-99.99,,,0.00,Acu-Link.com,2013-12-28 10:30:00,
2013-12-28 05:46:00,58.5,54.0,30.04,SE,135,0.0,-999.0,85,-99.99,,,0.00,Acu-Link.com,2013-12-28 10:46:00,
2013-12-28 06:01:00,58.6,54.5,30.04,SSW,202,1.6,-999.0,86,-99.99,,,0.00,Acu-Link.com,2013-12-28 11:01:00,
2013-12-28 06:16:00,58.8,55.0,30.05,ESE,112,0.0,-999.0,87,-99.99,,,0.00,Acu-Link.com,2013-12-28 11:16:00,
2013-12-28 06:31:00,59.2,55.3,30.04,SSE,157,0.0,-999.0,87,-99.99,,,0.00,Acu-Link.com,2013-12-28 11:31:00,
2013-12-28 06:46:00,59.5,55.7,30.05,ESE,112,1.1,-999.0,87,-99.99,,,0.00,Acu-Link.com,2013-12-28 11:46:00,
2013-12-28 07:02:00,59.9,56.0,30.05,East,90,0.0,-999.0,87,-99.99,,,0.00,Acu-Link.com,2013-12-28 12:02:00,
2013-12-28 07:17:00,60.3,56.4,30.05,SW,225,1.1,-999.0,87,-99.99,,,0.00,Acu-Link.com,2013-12-28 12:17:00,
2013-12-28 07:32:00,60.6,56.7,30.05,SE,135,0.0,-999.0,87,-99.99,,,0.00,Acu-Link.com,2013-12-28 12:32:00,
2013-12-28 07:47:00,60.8,56.9,30.05,SSE,157,1.1,-999.0,87,-99.99,,,0.00,Acu-Link.com,2013-12-28 12:47:00,
2013-12-28 08:03:00,61.3,57.4,30.06,SE,135,1.1,-999.0,87,-99.99,,,0.00,Acu-Link.com,2013-12-28 13:03:00,
2013-12-28 08:18:00,61.5,57.6,30.06,SE,135,2.7,-999.0,87,-99.99,,,0.00,Acu-Link.com,2013-12-28 13:18:00,
2013-12-28 08:33:00,61.9,58.0,30.06,SE,135,2.2,-999.0,87,-99.99,,,0.00,Acu-Link.com,2013-12-28 13:33:00,
2013-12-28 08:48:00,62.1,58.1,30.07,North,0,2.2,-999.0,87,-99.99,,,0.00,Acu-Link.com,2013-12-28 13:48:00,
2013-12-28 09:03:00,62.8,58.8,30.07,East,90,2.2,-999.0,87,-99.99,,,0.00,Acu-Link.com,2013-12-28 14:03:00,
2013-12-28 09:19:00,63.1,59.2,30.07,SSE,157,1.6,-999.0,87,-99.99,,,0.00,Acu-Link.com,2013-12-28 14:19:00,
2013-12-28 09:34:00,63.3,59.4,30.07,SSE,157,3.1,-999.0,87,-99.99,,,0.00,Acu-Link.com,2013-12-28 14:34:00,
2013-12-28 09:49:00,63.5,59.9,30.09,South,180,1.6,-999.0,88,-99.99,,,0.00,Acu-Link.com,2013-12-28 14:49:00,
2013-12-28 10:04:00,62.8,59.8,30.09,ESE,112,2.7,-999.0,90,-99.99,,,0.00,Acu-Link.com,2013-12-28 15:04:00,
2013-12-28 10:20:00,62.8,60.1,30.10,ENE,67,0.0,-999.0,91,-99.99,,,0.00,Acu-Link.com,2013-12-28 15:20:00,
2013-12-28 10:35:00,64.0,61.7,30.09,East,90,2.7,-999.0,92,-99.99,,,0.00,Acu-Link.com,2013-12-28 15:35:00,
2013-12-28 10:50:00,64.2,61.5,30.08,ESE,112,2.2,-999.0,91,-99.99,,,0.00,Acu-Link.com,2013-12-28 15:50:00,
2013-12-28 11:05:00,63.9,61.2,30.07,NNE,22,0.0,-999.0,91,-99.99,,,0.00,Acu-Link.com,2013-12-28 16:05:00,
2013-12-28 11:21:00,64.0,61.4,30.07,East,90,0.0,-999.0,91,-99.99,,,0.00,Acu-Link.com,2013-12-28 16:21:00,
2013-12-28 11:36:00,64.2,61.5,30.06,NNE,22,1.6,-999.0,91,-99.99,,,0.00,Acu-Link.com,2013-12-28 16:36:00,
2013-12-28 11:51:00,64.8,62.4,30.04,WSW,247,2.7,-999.0,92,-99.99,,,0.00,Acu-Link.com,2013-12-28 16:51:00,
2013-12-28 12:06:00,64.9,62.2,30.03,SSE,157,2.2,-999.0,91,-99.99,,,0.00,Acu-Link.com,2013-12-28 17:06:00,
2013-12-28 12:22:00,64.8,62.1,30.03,NNE,22,2.7,-999.0,91,-99.99,,,0.00,Acu-Link.com,2013-12-28 17:22:00,
2013-12-28 12:37:00,64.6,61.9,30.02,West,270,1.6,-999.0,91,-99.99,,,0.00,Acu-Link.com,2013-12-28 17:37:00,
2013-12-28 12:52:00,64.8,62.4,30.00,East,90,1.6,-999.0,92,-99.99,,,0.00,Acu-Link.com,2013-12-28 17:52:00,
2013-12-28 13:08:00,64.8,62.4,30.00,SE,135,1.6,-999.0,92,-99.99,,,0.00,Acu-Link.com,2013-12-28 18:08:00,
2013-12-28 13:23:00,64.4,62.3,29.98,ESE,112,4.7,-999.0,93,-99.99,,,0.00,Acu-Link.com,2013-12-28 18:23:00,
2013-12-28 13:38:00,64.6,62.5,29.96,South,180,1.1,-999.0,93,-99.99,,,0.00,Acu-Link.com,2013-12-28 18:38:00,
2013-12-28 13:53:00,64.9,62.9,29.96,ESE,112,0.0,-999.0,93,-99.99,,,0.00,Acu-Link.com,2013-12-28 18:53:00,
2013-12-28 14:09:00,65.1,63.0,29.95,East,90,0.0,-999.0,93,-99.99,,,0.00,Acu-Link.com,2013-12-28 19:09:00,
2013-12-28 14:24:00,65.8,63.8,29.94,ENE,67,0.0,-999.0,93,-99.99,,,0.00,Acu-Link.com,2013-12-28 19:24:00,
2013-12-28 14:39:00,65.8,63.8,29.93,SSE,157,2.7,-999.0,93,-99.99,,,0.00,Acu-Link.com,2013-12-28 19:39:00,
2013-12-28 14:54:00,66.4,64.3,29.93,SSW,202,1.6,-999.0,93,-99.99,,,0.00,Acu-Link.com,2013-12-28 19:54:00,
2013-12-28 15:10:00,66.7,64.6,29.93,East,90,0.0,-999.0,93,-99.99,,,0.00,Acu-Link.com,2013-12-28 20:10:00,
2013-12-28 15:25:00,66.7,64.6,29.93,SSE,157,1.6,-999.0,93,-99.99,,,0.00,Acu-Link.com,2013-12-28 20:25:00,
2013-12-28 15:40:00,66.9,64.8,29.92,SSE,157,0.0,-999.0,93,-99.99,,,0.00,Acu-Link.com,2013-12-28 20:40:00,
2013-12-28 15:56:00,67.6,65.5,29.93,ESE,112,0.0,-999.0,93,-99.99,,,0.00,Acu-Link.com,2013-12-28 20:56:00,
2013-12-28 16:11:00,67.6,65.5,29.93,ESE,112,0.0,-999.0,93,-99.99,,,0.00,Acu-Link.com,2013-12-28 21:11:00,
2013-12-28 16:26:00,67.8,65.7,29.91,ENE,67,0.0,-999.0,93,-99.99,,,0.00,Acu-Link.com,2013-12-28 21:26:00,
2013-12-28 16:42:00,67.8,65.7,29.91,ESE,112,0.0,-999.0,93,-99.99,,,0.00,Acu-Link.com,2013-12-28 21:42:00,
2013-12-28 16:57:00,67.8,65.7,29.91,ESE,112,0.0,-999.0,93,-99.99,,,0.00,Acu-Link.com,2013-12-28 21:57:00,
2013-12-28 17:12:00,67.8,65.7,29.91,NW,315,0.0,-999.0,93,-99.99,,,0.00,Acu-Link.com,2013-12-28 22:12:00,
2013-12-28 17:27:00,67.5,65.4,29.92,NW,315,0.0,-999.0,93,-99.99,,,0.00,Acu-Link.com,2013-12-28 22:27:00,
2013-12-28 17:42:00,67.1,65.0,29.91,South,180,0.0,-999.0,93,-99.99,,,0.00,Acu-Link.com,2013-12-28 22:42:00,
2013-12-28 17:58:00,66.7,64.6,29.91,SW,225,0.0,-999.0,93,-99.99,,,0.00,Acu-Link.com,2013-12-28 22:58:00,
2013-12-28 18:13:00,66.6,64.8,29.90,WSW,247,0.0,-999.0,94,-99.99,,,0.00,Acu-Link.com,2013-12-28 23:13:00,
2013-12-28 18:28:00,66.6,64.8,29.91,NNW,337,0.0,-999.0,94,-99.99,,,0.00,Acu-Link.com,2013-12-28 23:28:00,
2013-12-28 18:44:00,66.4,64.6,29.91,SSE,157,0.0,-999.0,94,-99.99,,,0.00,Acu-Link.com,2013-12-28 23:44:00,
2013-12-28 18:59:00,66.4,64.9,29.90,NE,45,0.0,-999.0,95,-99.99,,,0.00,Acu-Link.com,2013-12-28 23:59:00,
2013-12-28 19:14:00,66.4,64.9,29.90,South,180,1.1,-999.0,95,-99.99,,,0.00,Acu-Link.com,2013-12-29 00:14:00,
2013-12-28 19:30:00,66.0,64.5,29.89,NW,315,0.0,-999.0,95,-99.99,,,0.00,Acu-Link.com,2013-12-29 00:30:00,
2013-12-28 19:45:00,65.5,64.0,29.89,South,180,0.0,-999.0,95,-99.99,,,0.00,Acu-Link.com,2013-12-29 00:45:00,
2013-12-28 20:00:00,64.9,63.5,29.89,West,270,0.0,-999.0,95,-99.99,,,0.00,Acu-Link.com,2013-12-29 01:00:00,
2013-12-28 20:15:00,64.6,63.1,29.89,West,270,0.0,-999.0,95,-99.99,,,0.00,Acu-Link.com,2013-12-29 01:15:00,
2013-12-28 20:31:00,64.4,62.9,29.89,SSW,202,0.0,-999.0,95,-99.99,,,0.00,Acu-Link.com,2013-12-29 01:31:00,
2013-12-28 20:46:00,64.0,62.6,29.89,SE,135,0.0,-999.0,95,-99.99,,,0.00,Acu-Link.com,2013-12-29 01:46:00,
2013-12-28 21:01:00,63.9,62.4,29.87,East,90,0.0,-999.0,95,-99.99,,,0.00,Acu-Link.com,2013-12-29 02:01:00,
2013-12-28 21:17:00,64.0,62.9,29.87,SE,135,0.0,-999.0,96,-99.99,,,0.00,Acu-Link.com,2013-12-29 02:17:00,
2013-12-28 21:32:00,64.6,63.4,29.86,SSE,157,1.6,-999.0,96,-99.99,,,0.00,Acu-Link.com,2013-12-29 02:32:00,
2013-12-28 21:47:00,64.9,63.8,29.86,West,270,0.0,-999.0,96,-99.99,,,0.00,Acu-Link.com,2013-12-29 02:47:00,
2013-12-28 22:03:00,65.3,64.4,29.85,East,90,1.1,-999.0,97,-99.99,,,0.00,Acu-Link.com,2013-12-29 03:03:00,
2013-12-28 22:18:00,65.8,65.0,29.85,SE,135,1.6,-999.0,97,-99.99,,,0.00,Acu-Link.com,2013-12-29 03:18:00,
2013-12-28 22:33:00,65.5,64.3,29.85,SE,135,1.1,-999.0,96,-99.99,,,0.00,Acu-Link.com,2013-12-29 03:33:00,
2013-12-28 22:48:00,65.8,64.7,29.85,SSE,157,1.1,-999.0,96,-99.99,,,0.00,Acu-Link.com,2013-12-29 03:48:00,
2013-12-28 23:03:00,66.4,64.9,29.83,East,90,2.7,-999.0,95,-99.99,,,0.00,Acu-Link.com,2013-12-29 04:03:00,
2013-12-28 23:19:00,66.9,65.1,29.82,SSE,157,2.7,-999.0,94,-99.99,,,0.00,Acu-Link.com,2013-12-29 04:19:00,
2013-12-28 23:34:00,67.1,65.0,29.81,ENE,67,1.6,-999.0,93,-99.99,,,0.00,Acu-Link.com,2013-12-29 04:34:00,
2013-12-28 23:49:00,67.5,65.4,29.82,SSE,157,2.7,-999.0,93,-99.99,,,0.00,Acu-Link.com,2013-12-29 04:49:00,